Location: Catacaguana
(10.4120°N, 66.7591°W)
Time: 07:01:43
(UTC+00:00)

Cosmos 2278 - Pass Details

Date: 27 May 2022
Orbit: 838 x 854 km, 71.1° (Epoch: 28 June)

Event Time Altitude Azimuth Distance (km) Brightness Sun altitude
Exits shadow 00:50:34 70° 12° (NNE) 891 3.7 -28.7°
Drops below altitude 10° 00:55:29 10° 15° (NNE) 2,451 6.3 -29.8°
Sets 00:57:56 0° 16° (NNE) 3,387 7.0 -30.3°
